Powrót do katalogu

DELTA 1 DEB

AktywnySSO
NORAD 14909·DEBRIS·🇺🇸 United States

Wystrzelony Mar 5, 1978 z Vandenberg Space Force Base

Loading…

Następne Przeloty (najbliższe 24 godziny)

TLE

ŚwieżeSource: Space-Track

Epoka: Sep 14, 2026, 01:42 UTC

1 14909U 78026GJ  26257.07134528  .00001843  00000-0  10533-2 0  9998
2 14909  98.7120 301.0088 0130328 312.1792  76.2211 14.06614477258693

Śledź DELTA 1 DEB w czasie rzeczywistym z AllMySat

Download on the App Store